User: anonymous   Login
Location: Unspecified
(0.0000°N, 0.0000°E)
Time: 19:00:34
(UTC+00:00)
Language:

GOES 1 - Orbit

View from above orbital plane
View from above orbital plane
View from above satellite
View from above satellite

Ground track
Ground track

The orbit data is extracted from the following two-line orbital elements,

1  8366U 75100A   17084.20753892 -.00000229 +00000-0 +00000-0 0  9996
2  8366 012.1809 319.5170 0004842 291.2910 282.5123 01.00295632151406
Epoch (UTC): 25 March 2017 04:58:51
Eccentricity: 0.0004842
inclination: 12.1809°
perigee height: 35759 km
apogee height: 35800 km
right ascension of ascending node: 319.5170°
argument of perigee: 291.2910°
revolutions per day: 1.00295632
mean anomaly at epoch: 282.5123°
orbit number at epoch: 15140

The dashed part of the orbit path shows where the satellite is in the earth's shadow,  

DLR